Time,TemperatureF,DewpointF,PressureIn,WindDirection,WindDirectionDegrees,WindSpeedMPH,WindSpeedGustMPH,Humidity,HourlyPrecipIn,Conditions,Clouds,dailyrainin,SoftwareType,DateUTC
2013-07-24 00:11:00,80.0,68.0,29.61,West,274,2.0,3.0,66,0.00,,,0.31,,2013-07-24 04:11:00,
2013-07-24 00:22:00,80.0,68.0,29.61,WSW,256,0.0,2.0,67,0.00,,,0.31,,2013-07-24 04:22:00,
2013-07-24 00:32:00,80.0,68.0,29.61,WSW,256,0.0,2.0,67,0.00,,,0.31,,2013-07-24 04:32:00,
2013-07-24 00:43:00,80.0,68.0,29.61,WSW,256,0.0,2.0,67,0.00,,,0.31,,2013-07-24 04:43:00,
2013-07-24 00:52:00,80.0,68.0,29.61,WSW,256,0.0,2.0,67,0.00,,,0.31,,2013-07-24 04:52:00,
2013-07-24 01:22:00,78.0,67.0,29.61,NW,310,3.0,4.0,68,0.00,,,0.31,,2013-07-24 05:22:00,
2013-07-24 01:33:00,78.0,67.0,29.61,NW,310,3.0,4.0,68,0.00,,,0.31,,2013-07-24 05:33:00,
2013-07-24 01:34:00,78.0,67.0,29.61,WNW,284,2.0,3.0,69,0.00,,,0.30,,2013-07-24 05:34:00,
2013-07-24 01:43:00,78.0,67.0,29.61,WNW,286,1.0,3.0,69,0.00,,,0.31,,2013-07-24 05:43:00,
2013-07-24 01:52:00,78.0,67.0,29.61,WNW,284,2.0,3.0,69,0.00,,,0.30,,2013-07-24 05:52:00,
2013-07-24 02:01:00,78.0,67.0,29.61,WNW,284,2.0,3.0,69,0.00,,,0.30,,2013-07-24 06:01:00,
2013-07-24 02:12:00,78.0,67.0,29.61,WNW,284,2.0,3.0,69,0.00,,,0.30,,2013-07-24 06:12:00,
2013-07-24 02:24:00,78.0,67.0,29.61,WNW,284,2.0,3.0,69,0.00,,,0.30,,2013-07-24 06:24:00,
2013-07-24 02:43:00,77.0,66.0,29.60,West,273,2.0,3.0,70,0.00,,,0.29,,2013-07-24 06:43:00,
2013-07-24 02:53:00,77.0,67.0,29.60,West,274,2.0,3.0,71,0.00,,,0.29,,2013-07-24 06:53:00,
2013-07-24 03:02:00,77.0,67.0,29.60,WNW,295,3.0,4.0,71,0.00,,,0.28,,2013-07-24 07:02:00,
2013-07-24 03:12:00,77.0,67.0,29.60,WNW,295,3.0,4.0,71,0.00,,,0.28,,2013-07-24 07:12:00,
2013-07-24 03:22:00,77.0,67.0,29.60,NW,312,3.0,3.0,72,0.00,,,0.25,,2013-07-24 07:22:00,
2013-07-24 03:32:00,77.0,68.0,29.60,NW,310,2.0,3.0,73,0.00,,,0.23,,2013-07-24 07:32:00,
2013-07-24 03:43:00,77.0,68.0,29.59,NW,310,0.0,3.0,74,0.00,,,0.21,,2013-07-24 07:43:00,
2013-07-24 04:02:00,76.0,67.0,29.59,NW,308,0.0,0.0,75,0.00,,,0.17,,2013-07-24 08:02:00,
2013-07-24 04:12:00,76.0,68.0,29.59,NW,308,1.0,3.0,77,0.00,,,0.14,,2013-07-24 08:12:00,
2013-07-24 04:22:00,76.0,68.0,29.59,WSW,239,2.0,2.0,76,0.00,,,0.10,,2013-07-24 08:22:00,
2013-07-24 04:32:00,76.0,68.0,29.59,WSW,243,0.0,2.0,76,0.00,,,0.07,,2013-07-24 08:32:00,
2013-07-24 04:43:00,76.0,68.0,29.59,West,280,0.0,3.0,76,0.00,,,0.04,,2013-07-24 08:43:00,
2013-07-24 04:52:00,76.0,68.0,29.59,West,280,0.0,3.0,76,0.00,,,0.04,,2013-07-24 08:52:00,
2013-07-24 05:02:00,76.0,68.0,29.59,West,273,2.0,2.0,76,0.00,,,0.01,,2013-07-24 09:02:00,
2013-07-24 05:12:00,76.0,68.0,29.59,West,273,2.0,2.0,76,0.00,,,0.01,,2013-07-24 09:12:00,
2013-07-24 05:22:00,76.0,68.0,29.60,West,271,0.0,2.0,76,0.00,,,0.00,,2013-07-24 09:22:00,
2013-07-24 05:32:00,75.0,67.0,29.60,West,276,0.0,0.0,76,0.00,,,0.00,,2013-07-24 09:32:00,
2013-07-24 05:43:00,75.0,67.0,29.60,West,276,2.0,2.0,77,0.00,,,0.00,,2013-07-24 09:43:00,
2013-07-24 05:53:00,75.0,67.0,29.60,West,276,2.0,2.0,77,0.00,,,0.00,,2013-07-24 09:53:00,
2013-07-24 06:02:00,75.0,67.0,29.60,West,276,2.0,2.0,77,0.00,,,0.00,,2013-07-24 10:02:00,
2013-07-24 06:12:00,75.0,67.0,29.60,West,276,2.0,2.0,77,0.00,,,0.00,,2013-07-24 10:12:00,
2013-07-24 06:22:00,75.0,67.0,29.62,WNW,290,0.0,1.0,77,0.00,,,0.00,,2013-07-24 10:22:00,
2013-07-24 06:33:00,75.0,67.0,29.62,WNW,290,0.0,1.0,77,0.00,,,0.00,,2013-07-24 10:33:00,
2013-07-24 06:43:00,75.0,67.0,29.62,WNW,283,1.0,3.0,77,0.00,,,0.00,,2013-07-24 10:43:00,
2013-07-24 06:53:00,75.0,67.0,29.62,WNW,283,1.0,3.0,77,0.00,,,0.00,,2013-07-24 10:53:00,
2013-07-24 07:02:00,75.0,67.0,29.62,WNW,283,1.0,3.0,77,0.00,,,0.00,,2013-07-24 11:02:00,
2013-07-24 07:12:00,75.0,67.0,29.62,WNW,283,1.0,3.0,77,0.00,,,0.00,,2013-07-24 11:12:00,
2013-07-24 07:22:00,75.0,67.0,29.62,WNW,283,1.0,3.0,77,0.00,,,0.00,,2013-07-24 11:22:00,
2013-07-24 07:44:00,75.0,67.0,29.64,NW,316,3.0,5.0,75,0.00,,,0.00,,2013-07-24 11:44:00,
2013-07-24 07:52:00,75.0,66.0,29.65,NW,304,3.0,8.0,74,0.00,,,0.00,,2013-07-24 11:52:00,
2013-07-24 08:02:00,75.0,65.0,29.65,NW,319,3.0,8.0,72,0.00,,,0.00,,2013-07-24 12:02:00,
2013-07-24 08:12:00,75.0,65.0,29.65,NW,319,3.0,8.0,72,0.00,,,0.00,,2013-07-24 12:12:00,
2013-07-24 08:22:00,75.0,65.0,29.65,NW,319,3.0,8.0,72,0.00,,,0.00,,2013-07-24 12:22:00,
2013-07-24 08:32:00,75.0,65.0,29.65,NW,319,3.0,8.0,72,0.00,,,0.00,,2013-07-24 12:32:00,
2013-07-24 08:42:00,77.0,64.0,29.67,NW,308,4.0,6.0,65,0.00,,,0.00,,2013-07-24 12:42:00,
2013-07-24 08:52:00,77.0,64.0,29.67,NW,308,4.0,6.0,65,0.00,,,0.00,,2013-07-24 12:52:00,
2013-07-24 09:12:00,79.0,64.0,29.67,WNW,303,5.0,9.0,61,0.00,,,0.00,,2013-07-24 13:12:00,
2013-07-24 09:32:00,79.0,64.0,29.68,NNW,339,9.0,9.0,61,0.00,,,0.00,,2013-07-24 13:32:00,
2013-07-24 09:43:00,80.0,64.0,29.68,North,0,5.0,11.0,58,0.00,,,0.00,,2013-07-24 13:43:00,
2013-07-24 09:53:00,81.0,64.0,29.69,North,354,5.0,10.0,57,0.00,,,0.00,,2013-07-24 13:53:00,
2013-07-24 10:02:00,81.0,64.0,29.69,North,354,5.0,10.0,57,0.00,,,0.00,,2013-07-24 14:02:00,
2013-07-24 10:12:00,82.0,64.0,29.69,North,350,2.0,7.0,55,0.00,,,0.00,,2013-07-24 14:12:00,
2013-07-24 10:22:00,83.0,65.0,29.69,NNW,331,5.0,8.0,54,0.00,,,0.00,,2013-07-24 14:22:00,
2013-07-24 10:32:00,82.0,64.0,29.69,NNW,341,3.0,5.0,55,0.00,,,0.00,,2013-07-24 14:32:00,
2013-07-24 10:43:00,83.0,65.0,29.70,NNW,328,8.0,8.0,54,0.00,,,0.00,,2013-07-24 14:43:00,
2013-07-24 10:55:00,83.0,64.0,29.70,NNW,333,5.0,9.0,52,0.00,,,0.00,,2013-07-24 14:55:00,
2013-07-24 11:12:00,84.0,66.0,29.71,NW,324,10.0,10.0,54,0.00,,,0.00,,2013-07-24 15:12:00,
2013-07-24 11:22:00,84.0,65.0,29.72,NNE,29,3.0,6.0,53,0.00,,,0.00,,2013-07-24 15:22:00,
2013-07-24 11:33:00,84.0,65.0,29.72,WNW,282,9.0,10.0,53,0.00,,,0.00,,2013-07-24 15:33:00,
2013-07-24 11:43:00,84.0,66.0,29.72,NW,314,5.0,10.0,54,0.00,,,0.00,,2013-07-24 15:43:00,
2013-07-24 11:53:00,83.0,65.0,29.73,NNW,345,10.0,12.0,54,0.00,,,0.00,,2013-07-24 15:53:00,
2013-07-24 12:02:00,83.0,65.0,29.73,NNW,345,10.0,12.0,54,0.00,,,0.00,,2013-07-24 16:02:00,
2013-07-24 12:12:00,81.0,63.0,29.73,NW,311,12.0,13.0,55,0.00,,,0.00,,2013-07-24 16:12:00,
2013-07-24 12:22:00,81.0,63.0,29.73,NW,311,12.0,13.0,55,0.00,,,0.00,,2013-07-24 16:22:00,
2013-07-24 12:33:00,80.0,63.0,29.74,NNW,328,5.0,10.0,56,0.00,,,0.00,,2013-07-24 16:33:00,
2013-07-24 12:43:00,80.0,63.0,29.74,NNW,328,5.0,10.0,56,0.00,,,0.00,,2013-07-24 16:43:00,
2013-07-24 12:53:00,80.0,63.0,29.74,NNW,328,5.0,10.0,56,0.00,,,0.00,,2013-07-24 16:53:00,
2013-07-24 13:03:00,80.0,63.0,29.74,NNW,328,5.0,10.0,56,0.00,,,0.00,,2013-07-24 17:03:00,
2013-07-24 13:12:00,80.0,63.0,29.74,NNW,328,5.0,10.0,56,0.00,,,0.00,,2013-07-24 17:12:00,
2013-07-24 13:22:00,81.0,63.0,29.74,North,0,8.0,12.0,55,0.00,,,0.00,,2013-07-24 17:22:00,
2013-07-24 13:33:00,81.0,63.0,29.74,North,0,8.0,12.0,55,0.00,,,0.00,,2013-07-24 17:33:00,
2013-07-24 13:43:00,82.0,62.0,29.74,East,92,3.0,13.0,51,0.00,,,0.00,,2013-07-24 17:43:00,
2013-07-24 13:53:00,82.0,62.0,29.74,East,92,3.0,13.0,51,0.00,,,0.00,,2013-07-24 17:53:00,
2013-07-24 14:02:00,82.0,62.0,29.74,East,92,3.0,13.0,51,0.00,,,0.00,,2013-07-24 18:02:00,
2013-07-24 14:12:00,84.0,63.0,29.74,North,7,8.0,12.0,50,0.00,,,0.00,,2013-07-24 18:12:00,
2013-07-24 14:22:00,84.0,63.0,29.75,NW,306,5.0,8.0,50,0.00,,,0.00,,2013-07-24 18:22:00,
2013-07-24 14:33:00,84.0,63.0,29.75,North,350,9.0,10.0,49,0.00,,,0.00,,2013-07-24 18:33:00,
2013-07-24 14:43:00,84.0,63.0,29.75,North,350,9.0,10.0,49,0.00,,,0.00,,2013-07-24 18:43:00,
2013-07-24 14:52:00,84.0,63.0,29.75,North,350,9.0,10.0,49,0.00,,,0.00,,2013-07-24 18:52:00,
2013-07-24 15:02:00,84.0,62.0,29.76,NW,322,3.0,5.0,47,0.00,,,0.00,,2013-07-24 19:02:00,
2013-07-24 15:12:00,84.0,62.0,29.76,NW,322,3.0,5.0,47,0.00,,,0.00,,2013-07-24 19:12:00,
2013-07-24 15:33:00,84.0,61.0,29.77,NW,325,9.0,10.0,46,0.00,,,0.00,,2013-07-24 19:33:00,
2013-07-24 15:43:00,84.0,61.0,29.77,NW,325,9.0,10.0,46,0.00,,,0.00,,2013-07-24 19:43:00,
2013-07-24 15:53:00,84.0,61.0,29.77,NW,325,9.0,10.0,46,0.00,,,0.00,,2013-07-24 19:53:00,
2013-07-24 16:02:00,84.0,61.0,29.77,NW,325,9.0,10.0,46,0.00,,,0.00,,2013-07-24 20:02:00,
2013-07-24 16:13:00,84.0,61.0,29.77,NW,325,9.0,10.0,46,0.00,,,0.00,,2013-07-24 20:13:00,
2013-07-24 16:23:00,82.0,60.0,29.76,WNW,300,2.0,4.0,47,0.00,,,0.00,,2013-07-24 20:23:00,
2013-07-24 16:33:00,82.0,61.0,29.76,North,351,3.0,6.0,49,0.00,,,0.00,,2013-07-24 20:33:00,
2013-07-24 16:43:00,82.0,61.0,29.76,North,351,3.0,6.0,49,0.00,,,0.00,,2013-07-24 20:43:00,
2013-07-24 16:53:00,82.0,60.0,29.76,North,8,6.0,9.0,47,0.00,,,0.00,,2013-07-24 20:53:00,
2013-07-24 17:03:00,81.0,59.0,29.76,NNW,332,3.0,13.0,48,0.00,,,0.00,,2013-07-24 21:03:00,
2013-07-24 17:12:00,81.0,59.0,29.76,NNW,332,3.0,13.0,48,0.00,,,0.00,,2013-07-24 21:12:00,
2013-07-24 17:22:00,81.0,59.0,29.76,NNW,332,3.0,13.0,48,0.00,,,0.00,,2013-07-24 21:22:00,
2013-07-24 17:32:00,80.0,59.0,29.77,NW,319,2.0,9.0,49,0.00,,,0.00,,2013-07-24 21:32:00,
2013-07-24 17:44:00,81.0,59.0,29.77,NNW,344,6.0,10.0,47,0.00,,,0.00,,2013-07-24 21:44:00,
2013-07-24 17:53:00,81.0,59.0,29.77,NNW,344,6.0,10.0,47,0.00,,,0.00,,2013-07-24 21:53:00,
2013-07-24 18:02:00,81.0,59.0,29.77,NNW,344,6.0,10.0,47,0.00,,,0.00,,2013-07-24 22:02:00,
2013-07-24 18:12:00,80.0,58.0,29.78,NW,323,1.0,12.0,47,0.00,,,0.00,,2013-07-24 22:12:00,
2013-07-24 18:22:00,80.0,58.0,29.78,NW,323,1.0,12.0,47,0.00,,,0.00,,2013-07-24 22:22:00,
2013-07-24 18:43:00,80.0,57.0,29.78,NNE,27,7.0,10.0,46,0.00,,,0.00,,2013-07-24 22:43:00,
2013-07-24 18:53:00,80.0,58.0,29.78,NW,326,9.0,9.0,47,0.00,,,0.00,,2013-07-24 22:53:00,
2013-07-24 19:02:00,79.0,57.0,29.78,NNW,335,3.0,6.0,47,0.00,,,0.00,,2013-07-24 23:02:00,
2013-07-24 19:12:00,79.0,57.0,29.78,NNW,335,3.0,6.0,47,0.00,,,0.00,,2013-07-24 23:12:00,
2013-07-24 19:22:00,79.0,57.0,29.78,NNW,335,3.0,6.0,47,0.00,,,0.00,,2013-07-24 23:22:00,
2013-07-24 19:32:00,79.0,57.0,29.78,NNW,335,3.0,6.0,47,0.00,,,0.00,,2013-07-24 23:32:00,
2013-07-24 19:43:00,79.0,57.0,29.78,NNW,335,3.0,6.0,47,0.00,,,0.00,,2013-07-24 23:43:00,
2013-07-24 20:02:00,78.0,56.0,29.81,NNW,333,3.0,6.0,47,0.00,,,0.00,,2013-07-25 00:02:00,
2013-07-24 20:12:00,77.0,55.0,29.82,NW,307,10.0,10.0,47,0.00,,,0.00,,2013-07-25 00:12:00,
2013-07-24 20:22:00,77.0,55.0,29.82,NW,307,10.0,10.0,47,0.00,,,0.00,,2013-07-25 00:22:00,
2013-07-24 20:33:00,76.0,55.0,29.83,North,0,3.0,8.0,48,0.00,,,0.00,,2013-07-25 00:33:00,
2013-07-24 20:43:00,76.0,55.0,29.83,NW,323,5.0,7.0,49,0.00,,,0.00,,2013-07-25 00:43:00,
2013-07-24 20:53:00,76.0,55.0,29.84,North,4,5.0,11.0,48,0.00,,,0.00,,2013-07-25 00:53:00,
2013-07-24 21:03:00,75.0,55.0,29.84,WSW,258,2.0,6.0,49,0.00,,,0.00,,2013-07-25 01:03:00,
2013-07-24 21:12:00,75.0,55.0,29.84,WSW,258,2.0,6.0,49,0.00,,,0.00,,2013-07-25 01:12:00,
2013-07-24 21:43:00,74.0,55.0,29.86,NNW,334,7.0,10.0,52,0.00,,,0.00,,2013-07-25 01:43:00,
2013-07-24 21:53:00,73.0,55.0,29.87,North,349,5.0,10.0,53,0.00,,,0.00,,2013-07-25 01:53:00,
2013-07-24 22:02:00,73.0,55.0,29.87,North,349,5.0,10.0,53,0.00,,,0.00,,2013-07-25 02:02:00,
2013-07-24 22:12:00,73.0,55.0,29.87,North,349,5.0,10.0,53,0.00,,,0.00,,2013-07-25 02:12:00,
2013-07-24 22:22:00,73.0,55.0,29.87,North,349,5.0,10.0,53,0.00,,,0.00,,2013-07-25 02:22:00,
2013-07-24 22:33:00,73.0,55.0,29.87,North,349,5.0,10.0,53,0.00,,,0.00,,2013-07-25 02:33:00,
2013-07-24 22:53:00,71.0,54.0,29.89,North,0,4.0,8.0,55,0.00,,,0.00,,2013-07-25 02:53:00,
2013-07-24 23:02:00,71.0,54.0,29.89,North,0,4.0,8.0,55,0.00,,,0.00,,2013-07-25 03:02:00,
2013-07-24 23:16:00,71.0,54.0,29.89,North,0,4.0,8.0,55,0.00,,,0.00,,2013-07-25 03:16:00,
2013-07-24 23:24:00,71.0,54.0,29.89,North,0,4.0,8.0,55,0.00,,,0.00,,2013-07-25 03:24:00,
2013-07-24 23:38:00,71.0,52.0,29.90,NNW,348,3.0,12.0,52,0.00,,,0.00,,2013-07-25 03:38:00,
2013-07-24 23:45:00,70.0,52.0,29.90,North,0,3.0,3.0,52,0.00,,,0.00,,2013-07-25 03:45:00,
2013-07-24 23:53:00,70.0,52.0,29.90,North,0,3.0,3.0,52,0.00,,,0.00,,2013-07-25 03:53:00,